Location: Bagnara
(41.0500°N, 14.7833°E)
Time: 09:26:25
(UTC+00:00)

Cosmos 1500 Rocket - Pass Details

Date: 20 June 2021
Orbit: 604 x 630 km, 82.5° (Epoch: 26 July)

Event Time Altitude Azimuth Distance (km) Brightness Sun altitude
Exits shadow 02:23:58 - 181° (S) 2,412 6.2 -10.4°
Reaches altitude 10° 02:25:06 10° 179° (S) 1,955 5.7 -10.2°
Maximum altitude 02:29:24 73° 96° (E) 639 3.8 -9.6°
Drops below altitude 10° 02:33:43 10° 12° (NNE) 1,961 7.0 -9.0°
Sets 02:35:56 0° 10° (N) 2,867 7.9 -8.7°
